Weather History for KCNK - November, 2013

Change the Weather History Date:

Wednesday, November 6, 2013

  Actual Average Record
Temperature  
Mean Temperature 37 °F 47 °F  
Max Temperature 42 °F 58 °F 84 °F (1980)
Min Temperature 32 °F 36 °F 13 °F (1959)
Degree Days  
Heating Degree Days 28 18  
Month to date heating degree days 105 102  
Since 1 July heating degree days 449 493  
Cooling Degree Days 0 0  
Month to date cooling degree days 0 0  
Year to date cooling degree days 1359 1348  
Moisture  
Dew Point 32 °F    
Average Humidity 83    
Maximum Humidity 96    
Minimum Humidity 70    
Precipitation  
Precipitation 0.00 in 0.04 in 1.00 in (1946)
Month to date precipitation 1.09 0.28  
Year to date precipitation 26.59 26.21  
Snow  
Snow 0.00 in 0.00 in 2.80 in (1953)
Month to date snowfall 0.0 0.2  
Year to date snowfall 20.3 14.1  
Since 1 July snowfall 0.0 0.4  
Snow Depth 0.00 in    
Sea Level Pressure  
Sea Level Pressure 30.26 in    
Wind  
Wind Speed 9 mph (WNW)    
Max Wind Speed 22 mph    
Max Gust Speed 28 mph    
Visibility 10 miles    
Events      
T = Trace of Precipitation, MM = Missing Value Source: NWS Daily Summary

Daily Weather History Graph

Daily Weather History Graph

Search for Another Location

Airport or City:

Trip Planner

Search our weather history database for the weather conditions in past years. The results will help you decide how hot, cold, wet, or windy it might be!

Date:

Astronomy

Nov. 06, 2013 Rise Set
Actual Time 7:04 AM CST 5:23 PM CST
Civil Twilight 6:36 AM CST 5:51 PM CST
Nautical Twilight 6:04 AM CST 6:23 PM CST
Astronomical Twilight 5:33 AM CST 6:54 PM CST
Moon 10:20 AM CST (11/6) 8:29 PM CST (11/6)
Length of Visible Light 11h 14m
Length of Day
10h 18m
Waxing Crescent, 14% of the Moon is Illuminated
Nov 6
Waxing Crescent
Nov 9
First Quarter
Nov 17
Full
Nov 25
Last Quarter
Dec 2
New

Hourly Weather History & Observations

Time (CST) Temp. Windchill Dew Point Humidity Pressure Visibility Wind Dir Wind Speed Gust Speed Precip Events Conditions
12:46 AM 35.1 °F 25.2 °F 33.1 °F 92% 30.10 in 10.0 mi NNW 16.1 mph 23.0 mph N/A   Overcast
12:55 AM 35.1 °F 25.5 °F 33.1 °F 92% 30.12 in 10.0 mi NNW 15.0 mph - N/A   Overcast
1:55 AM 34.0 °F 25.0 °F 32.0 °F 92% 30.14 in 10.0 mi NNW 12.7 mph - N/A   Overcast
2:55 AM 33.1 °F 24.4 °F 30.9 °F 92% 30.15 in 10.0 mi NNW 11.5 mph - N/A   Mostly Cloudy
3:11 AM 33.1 °F 25.5 °F 30.9 °F 92% 30.14 in 10.0 mi NNW 9.2 mph - N/A   Scattered Clouds
3:55 AM 33.1 °F 26.9 °F 30.9 °F 92% 30.17 in 10.0 mi NNW 6.9 mph - N/A   Clear
4:25 AM 32.0 °F 25.6 °F 30.0 °F 92% 30.16 in 10.0 mi NW 6.9 mph - N/A   Mostly Cloudy
4:55 AM 33.1 °F 24.4 °F 30.0 °F 89% 30.21 in 10.0 mi NNW 11.5 mph - N/A   Overcast
5:55 AM 33.1 °F 23.4 °F 30.0 °F 89% 30.23 in 10.0 mi NNW 13.8 mph - N/A   Overcast
6:55 AM 33.1 °F 24.4 °F 30.0 °F 89% 30.25 in 10.0 mi North 11.5 mph - N/A   Overcast
7:55 AM 33.1 °F 25.5 °F 30.0 °F 89% 30.28 in 10.0 mi North 9.2 mph - N/A   Overcast
8:55 AM 33.1 °F 24.4 °F 30.0 °F 89% 30.31 in 7.0 mi NNW 11.5 mph - N/A   Overcast
9:55 AM 34.0 °F 27.2 °F 30.9 °F 89% 30.32 in 9.0 mi NNW 8.1 mph - N/A   Overcast
10:55 AM 35.1 °F 27.9 °F 30.9 °F 85% 30.32 in 10.0 mi WNW 9.2 mph - N/A   Overcast
11:55 AM 36.0 °F 29.6 °F 32.0 °F 86% 30.32 in 10.0 mi NW 8.1 mph - N/A   Overcast
12:55 PM 37.0 °F 32.4 °F 30.9 °F 79% 30.30 in 10.0 mi WSW 5.8 mph - N/A   Overcast
1:22 PM 37.9 °F 34.4 °F 33.1 °F 83% 30.26 in 10.0 mi WNW 4.6 mph - N/A   Overcast
1:55 PM 39.9 °F 34.5 °F 33.1 °F 77% 30.29 in 10.0 mi WSW 8.1 mph - N/A   Mostly Cloudy
2:29 PM 39.9 °F 36.7 °F 32.0 °F 73% 30.26 in 10.0 mi West 4.6 mph - N/A   Scattered Clouds
2:39 PM 39.9 °F 33.9 °F 33.1 °F 77% 30.26 in 10.0 mi WSW 9.2 mph - N/A   Mostly Cloudy
2:46 PM 39.9 °F 35.8 °F 32.0 °F 73% 30.25 in 10.0 mi WSW 5.8 mph - N/A   Partly Cloudy
2:55 PM 39.9 °F 35.8 °F 33.1 °F 77% 30.28 in 10.0 mi WSW 5.8 mph - N/A   Partly Cloudy
3:55 PM 41.0 °F 35.8 °F 32.0 °F 70% 30.28 in 10.0 mi WSW 8.1 mph - N/A   Clear
4:55 PM 39.9 °F 36.7 °F 32.0 °F 73% 30.28 in 10.0 mi SSW 4.6 mph - N/A   Clear
5:55 PM 36.0 °F 30.3 °F 32.0 °F 86% 30.29 in 10.0 mi SSE 6.9 mph - N/A   Clear
6:55 PM 34.0 °F 28.8 °F 30.9 °F 89% 30.30 in 10.0 mi SSE 5.8 mph - N/A   Clear
7:55 PM 35.1 °F 32.2 °F 30.9 °F 85% 30.31 in 10.0 mi South 3.5 mph - N/A   Clear
8:55 PM 36.0 °F 30.3 °F 32.0 °F 86% 30.32 in 10.0 mi SSW 6.9 mph - N/A   Clear
9:55 PM 36.0 °F 30.3 °F 32.0 °F 86% 30.33 in 10.0 mi South 6.9 mph - N/A   Clear
10:55 PM 36.0 °F 27.5 °F 32.0 °F 86% 30.32 in 10.0 mi SSW 12.7 mph - N/A   Clear
11:55 PM - - - N/A% 30.30 in - North - - N/A   Unknown